ARIANE 44LP+ R/B, 22913

Orbit data source: Space-Track

ARIANE 44LP+ R/B, 22913 is space debris originally from a launch on Sat, 20 Nov 1993 UTC launched from the French Guiana (FRGUI). Debris objects in space refer to the collection of defunct objects orbiting the Earth. Examples of debris include non-operational satellites, rocket bodies, and fragments generated from explosions, collisions, or faulty payload assembly.

Loading next visibility...
ARIANE 44LP+ R/B details
Identifier
22913, 1993-073C
Orbit
Active
Last TLE update5 hours ago
Origin
Flag of FRArianespace (FR)
ManufacturerAe/LesM
MissionSpacecraft
Bus & MotorARIANE H10+/S, Unknown motor
Mass2,260 kg wet, 2,080 kg dry
Launch date (UTC)
1993-11-20 (31 years ago)
Launch vehicleUnknown
Launch site
French Guiana (FRGUI)
Object type
Payload
Rocket body
Debris
Shape & HBRCyl, 14.1 m
Radar Cross Section31.447 m², Large (>1 m²)

Expand to show TLE details & history

TLE from 5 hours ago
0 ARIANE 44LP+ R/B
1 22913U 93073C   24326.19868829  .00203785 -39409-5  26848-2 0  9993
2 22913   6.7574  26.2898 2466924 278.5906  54.4916 10.56750224646639
Epoch: 2024-11-21T04:46Z
Definitive object data (Epoch: 2024-11-21T04:46:06.668Z)
Latitude
Longitude-105.92181°
Altitude1,565.053 km
Speed7.412 km/s
True Right ascension01h 45m 09s
True Declination0° 00' 00"
Sunlit
Object was in full shadow at TLE epoch
Visualization TLE readout
Latitude6.73543°
Longitude-10.10219°
Altitude4,545.474 km
Speed5.25 km/s
Apparent Right ascension08h 56m 13s
Apparent Declination-24° 03' 27"
Sunlit
Object is in daylight
Visualization observer readout
Local Sidereal Time07:07:04
Azimuth153.328° SSE
Elevation21.152°
Doppler factor1
Orbital elements
Apogee altitude4,564.299 km
Perigee altitude233.775 km
Semi-major axis8,777.174 km
Eccentricity0.2466924
Inclination6.7574°
RAAN26.2898°
Arg. of periapsis278.5906°
True anomaly81.42256°
Mean anomaly54.4916°
Eccentric anomaly67.55533°
Mean motion2.63944 °/min
BSTAR0.0026848
Orbital period136.39 mins
Loading maneuver chart data...
Loading historical data...
Loading historical data...
Loading historical data...
Loading historical data...
Loading historical data...
Loading historical data...
Loading historical data...

ARIANE 44LP+ R/B Visibility forecast

Observer location: undefined°, undefined

Span
Click to sort rows by Start time (UTC) header in descending order
Start Az.
Max El. time (UTC)
Max El. Az.
Max El.
End time (UTC)
End Az.
11 mins2024-11-21 10:03:56.715Z153.371° SSE2024-11-21 10:03:56.715Z153.371° SSE19.79°2024-11-21 10:14:56.715Z132.246° SE
35 mins2024-11-21 12:11:56.715Z227.456° WSW2024-11-21 12:29:56.715Z188.332° SSW21.666°2024-11-21 12:46:56.715Z146.018° SSE
18 mins2024-11-21 14:52:56.715Z224.405° SW2024-11-21 15:02:56.715Z201.141° SSW14.016°2024-11-21 15:10:56.715Z177.207° S
27 mins2024-11-22 08:15:56.715Z199.063° SSW2024-11-22 08:26:56.715Z164.961° S18.71°2024-11-22 08:42:56.715Z129.849° SE
|